Buffalo, NY

6:59 PM EST on December 14, 2019 (GMT -0500)
Buffalo Niagara International

Weather History for KBUF - October, 2019

Change the Weather History Date:

Sunday, October 27, 2019

  Actual Average Record
Temperature  
Mean Temperature 57 °F 47 °F  
Max Temperature 61 °F 55 °F 83 °F (1947)
Min Temperature 52 °F 39 °F 23 °F (1976)
Degree Days  
Heating Degree Days 8 18  
Month to date heating degree days 343 368  
Since 1 July heating degree days 388 530  
Cooling Degree Days 0 0  
Month to date cooling degree days 7 0  
Year to date cooling degree days 604 540  
Growing Degree Days 4 (Base 50)    
Moisture  
Dew Point 51 °F    
Average Humidity 89    
Maximum Humidity 100    
Minimum Humidity 77    
Precipitation  
Precipitation 0.86 in 0.12 in 1.01 in (1954)
Month to date precipitation 4.31 3.08  
Year to date precipitation 38.96 32.14  
Snow  
Snow 0.00 in 0.10 in 0.10 in (1934)
Month to date snowfall 0.0 0.7  
Since 1 July snowfall 0.0 0.7  
Since 1 September snowfall 0.0 0.7  
Snow Depth 0.00 in    
Sea Level Pressure  
Sea Level Pressure 29.73 in    
Wind  
Wind Speed 19 mph (SW)    
Max Wind Speed 38 mph    
Max Gust Speed 55 mph    
Visibility 7 miles    
Events Rain    
T = Trace of Precipitation, MM = Missing Value Source: NWS Daily Summary

Daily Weather History Graph

Daily Weather History Graph

Search for Another Location

Airport or City:

Astronomy

Oct. 27, 2019 Rise Set
Actual Time 7:42 AM EDT 6:14 PM EDT
Civil Twilight 7:13 AM EDT 6:43 PM EDT
Nautical Twilight 6:40 AM EDT 7:16 PM EDT
Astronomical Twilight 6:07 AM EDT 7:49 PM EDT
Moon 6:46 AM EDT (10/27) 6:24 PM EDT (10/27)
Length of Visible Light 11h 29m
Length of Day
10h 31m
Waning Crescent, 0% of the Moon is Illuminated
Oct 27
Waning Crescent
Oct 27
New
Nov 4
First Quarter
Nov 12
Full
Nov 19
Last Quarter

Hourly Weather History & Observations

Time (EDT) Temp. Dew Point Humidity Pressure Visibility Wind Dir Wind Speed Gust Speed Precip Events Conditions
12:54 AM 51.1 °F 50.0 °F 96% 29.84 in 7.0 mi SE 12.7 mph - 0.08 in Rain Light Rain
1:54 AM 53.1 °F 50.0 °F 89% 29.81 in 9.0 mi SSE 15.0 mph - 0.01 in Rain Light Rain
2:54 AM 53.1 °F 51.1 °F 93% 29.74 in 4.0 mi SSE 16.1 mph 26.5 mph 0.17 in Rain Rain
3:54 AM 54.0 °F 52.0 °F 93% 29.68 in 4.0 mi SE 10.4 mph - 0.27 in Rain Heavy Rain
4:54 AM 55.0 °F 52.0 °F 89% 29.67 in 4.0 mi South 19.6 mph 26.5 mph 0.14 in Rain Rain
5:54 AM 55.9 °F 53.1 °F 90% 29.66 in 10.0 mi South 15.0 mph 20.7 mph 0.15 in Rain Light Rain
6:54 AM 57.0 °F 53.1 °F 87% 29.61 in 10.0 mi SSE 23.0 mph 27.6 mph 0.03 in Rain Light Rain
7:54 AM 57.9 °F 53.1 °F 84% 29.58 in 10.0 mi South 24.2 mph 34.5 mph 0.00 in   Mostly Cloudy
8:54 AM 60.1 °F 53.1 °F 78% 29.58 in 10.0 mi South 23.0 mph 36.8 mph N/A   Scattered Clouds
9:54 AM 60.1 °F 55.0 °F 83% 29.57 in 9.0 mi South 19.6 mph 26.5 mph 0.00 in Rain Light Rain
10:38 AM 57.9 °F 54.0 °F 87% 29.58 in 1.8 mi WSW 27.6 mph 41.4 mph 0.00 in Rain Light Rain
10:43 AM 54.0 °F 53.1 °F 97% 29.59 in 1.2 mi WSW 21.9 mph 41.4 mph 0.03 in Rain Rain
10:48 AM 53.6 °F 53.6 °F 100% 29.60 in 2.0 mi WSW 24.2 mph 32.2 mph 0.04 in Rain Rain
10:52 AM 53.6 °F 53.6 °F 100% 29.60 in 3.0 mi WSW 21.9 mph 32.2 mph 0.05 in Rain Light Rain
10:54 AM 54.0 °F 53.1 °F 97% 29.61 in 3.0 mi WSW 18.4 mph 32.2 mph 0.05 in Rain Light Rain
11:24 AM 54.0 °F 52.0 °F 93% 29.62 in 8.0 mi WSW 23.0 mph 36.8 mph 0.02 in Rain Light Rain
11:54 AM 53.1 °F 50.0 °F 89% 29.64 in 6.0 mi WSW 21.9 mph 42.6 mph 0.02 in Rain Light Rain
12:29 PM 54.0 °F 48.9 °F 83% 29.66 in 10.0 mi WSW 29.9 mph 41.4 mph 0.00 in   Overcast
12:54 PM 53.1 °F 48.9 °F 86% 29.68 in 10.0 mi WSW 29.9 mph 41.4 mph 0.00 in   Overcast
1:14 PM 52.0 °F 48.9 °F 89% 29.67 in 9.0 mi SW 31.1 mph 43.7 mph 0.00 in Rain Light Rain
1:47 PM 51.8 °F 50.0 °F 94% 29.69 in 2.5 mi WSW 26.5 mph 48.3 mph N/A Rain Light Rain
1:54 PM 52.0 °F 50.0 °F 93% 29.70 in 2.5 mi WSW 28.8 mph 48.3 mph 0.00 in Rain Light Rain
2:01 PM 52.0 °F 50.0 °F 93% 29.68 in 6.0 mi SW 28.8 mph 42.6 mph 0.00 in Rain Light Rain
2:54 PM 53.1 °F 48.9 °F 86% 29.72 in 10.0 mi SW 28.8 mph 46.0 mph 0.00 in Rain Light Rain
3:11 PM 52.0 °F 50.0 °F 93% 29.72 in 4.0 mi WSW 21.9 mph 36.8 mph 0.00 in Rain Light Rain
3:37 PM 52.0 °F 50.0 °F 93% 29.73 in 2.5 mi WSW 27.6 mph 40.3 mph 0.00 in Rain Light Rain
3:54 PM 52.0 °F 50.0 °F 93% 29.76 in 4.0 mi WSW 25.3 mph 43.7 mph 0.00 in Rain Light Rain
4:14 PM 52.0 °F 50.0 °F 93% 29.76 in 1.8 mi WSW 24.2 mph 39.1 mph 0.00 in Rain Light Rain
5:01 PM 52.0 °F 51.1 °F 97% 29.78 in 6.0 mi WSW 23.0 mph 39.1 mph 0.00 in Rain Light Rain
5:54 PM 52.0 °F 50.0 °F 93% 29.84 in 10.0 mi WSW 20.7 mph 28.8 mph 0.01 in   Overcast
6:54 PM 52.0 °F 48.0 °F 86% 29.89 in 10.0 mi West 15.0 mph 26.5 mph N/A   Mostly Cloudy
8:54 PM 53.1 °F 48.0 °F 83% 29.93 in 10.0 mi WSW 16.1 mph 24.2 mph N/A   Overcast
9:54 PM 53.1 °F 46.9 °F 80% 29.97 in 10.0 mi West 15.0 mph 23.0 mph N/A   Overcast
10:54 PM 52.0 °F 46.9 °F 83% 30.00 in 10.0 mi WSW 10.4 mph - N/A   Overcast
11:54 PM 53.1 °F 48.0 °F 83% 30.01 in 10.0 mi WSW 11.5 mph - N/A   Overcast